Home > Weather > Oceanside > Past weeks

Flag for USA Past Weather in Oceanside, California, USA — Yesterday and Last 2 Weeks

Now
72 °F

Clear.


Feels Like: 73 °F
Forecast: 67 / 83 °F
Wind: No wind

Location: Oceanside Weather Reporting Station

Current Time: Jul 24, 2016 at 11:15:07 PM

Latest Report: Jul 24, 2016 at 10:52 PM


Visibility: 8 mi

Pressure: 29.90 "Hg

Humidity: 78%

Dew Point: 65 °F

Location of OceansideLocation

Past Weather in Oceanside — Graph

°F

Oceanside Temperature Yesterday

Maximum temperature yesterday: 85 °F (at 9:52 AM)
Minimum temperature yesterday: 66 °F (at 5:52 AM)
Average temperature yesterday: 74 °F

High & Low Weather Summary for the Past Weeks

 TemperatureHumidityPressure
High85 °F (Jul 21, 1:52 PM)93% (Jul 22, 3:52 AM)30.02 "Hg (Jul 22, 3:52 AM)
Low61 °F (Jul 10, 12:52 AM)43% (Jul 21, 1:52 PM)29.79 "Hg (Jul 23, 4:52 AM)
Average71 °F71%29.92 "Hg
* Reported Jul 9 9:52 PM — Jul 24 9:52 PM, Oceanside, Weather by CustomWeather, © 2016

Note: Actual official high and low records may vary slightly from our data, if they occured in-between our weather recording intervals... More about our weather records

Advertising

Oceanside Weather History for the Previous 24 Hours

Scroll right to see more
 ConditionsComfort  
Time TempWeatherWind HumidityBarometerVisibility
9:52 PM
Sun, Jul 24
73 °FClear.3 mph76%29.90 "Hg8 mi
8:52 PM73 °FSunny.5 mph76%29.89 "Hg9 mi
7:52 PM75 °FSunny.5 mph69%29.88 "Hg8 mi
6:52 PM78 °FSunny.6 mph58%29.87 "Hg9 mi
5:52 PM80 °FSunny.6 mph54%29.86 "Hg9 mi
4:52 PM81 °FSunny.9 mph51%29.87 "Hg10 mi
3:52 PM83 °FSunny.9 mph51%29.88 "Hg9 mi
2:52 PM80 °FSunny.8 mph56%29.90 "Hg9 mi
1:52 PM81 °FSunny.10 mph54%29.91 "Hg9 mi
12:52 PM79 °FSunny.9 mph56%29.92 "Hg9 mi
11:52 AM79 °FSunny.10 mph58%29.93 "Hg8 mi
10:52 AM77 °FSunny.7 mph66%29.92 "Hg7 mi
9:52 AM74 °FPassing clouds.5 mph71%29.92 "Hg7 mi
8:52 AM72 °FOvercast.9 mph78%29.90 "Hg6 mi
7:52 AM72 °FOvercast.6 mph78%29.88 "Hg6 mi
6:52 AM66 °FFog.No wind90%29.84 "Hg4 mi
5:52 AM64 °FFog.No wind90%29.83 "Hg6 mi
4:52 AM67 °FFog.3 mph87%29.82 "Hg6 mi
3:52 AM69 °FPassing clouds.No wind84%29.81 "Hg7 mi
2:52 AM70 °FPassing clouds.3 mph84%29.81 "Hg7 mi
1:52 AM71 °FLow clouds.6 mph84%29.81 "Hg7 mi
12:52 AM67 °FClear.No wind85%29.81 "Hg6 mi
11:52 PM
Sat, Jul 23
67 °FClear.5 mph81%29.81 "Hg7 mi
Weather by CustomWeather, © 2016

See weather overviewHow to use our weather pages